Time,TemperatureF,DewpointF,PressureIn,WindDirection,WindDirectionDegrees,WindSpeedMPH,WindSpeedGustMPH,Humidity,HourlyPrecipIn,Conditions,Clouds,dailyrainin,SoftwareType,DateUTC
2013-02-21 00:00:00,19.9,18.1,30.01,SSW,202,0.0,0.0,93,0.00,,,0.00,WUHU21623XXSP,2013-02-21 08:00:00,
2013-02-21 00:05:00,19.9,18.1,30.01,SSW,202,0.0,0.0,93,0.00,,,0.00,WUHU21623XXSP,2013-02-21 08:05:00,
2013-02-21 00:10:00,20.1,18.3,30.02,SSW,202,0.0,0.0,93,0.00,,,0.00,WUHU21623XXSP,2013-02-21 08:10:00,
2013-02-21 00:15:00,20.1,18.3,30.02,SSW,202,0.0,0.0,93,0.00,,,0.00,WUHU21623XXSP,2013-02-21 08:15:00,
2013-02-21 00:20:00,19.9,18.1,30.02,SSW,202,0.0,0.0,93,0.00,,,0.00,WUHU21623XXSP,2013-02-21 08:20:00,
2013-02-21 00:25:00,19.8,18.0,30.02,SSW,202,0.0,0.0,93,0.00,,,0.00,WUHU21623XXSP,2013-02-21 08:25:00,
2013-02-21 00:26:00,19.6,17.8,30.02,SSW,202,0.0,0.0,93,0.00,,,0.00,WUHU21623XXSP,2013-02-21 08:26:00,
2013-02-21 00:30:00,19.8,18.0,30.03,SSW,202,0.0,0.0,93,0.00,,,0.00,WUHU21623XXSP,2013-02-21 08:30:00,
2013-02-21 00:36:00,19.6,17.8,30.03,SSW,202,0.0,0.0,93,0.00,,,0.00,WUHU21623XXSP,2013-02-21 08:36:00,
2013-02-21 00:43:00,19.4,17.4,30.03,SSW,202,0.0,0.0,92,0.00,,,0.00,WUHU21623XXSP,2013-02-21 08:43:00,
2013-02-21 00:49:00,19.2,17.4,30.03,SSW,202,0.0,0.0,93,0.00,,,0.00,WUHU21623XXSP,2013-02-21 08:49:00,
2013-02-21 00:54:00,19.0,17.0,30.02,SSW,202,0.0,0.0,92,0.00,,,0.00,WUHU21623XXSP,2013-02-21 08:54:00,
2013-02-21 00:59:00,19.0,17.0,30.02,SSW,202,0.0,0.0,92,0.00,,,0.00,WUHU21623XXSP,2013-02-21 08:59:00,
2013-02-21 01:04:00,19.0,17.0,30.02,SSW,202,0.0,0.0,92,0.00,,,0.00,WUHU21623XXSP,2013-02-21 09:04:00,
2013-02-21 01:09:00,19.0,17.0,30.02,SSW,202,0.0,0.0,92,0.00,,,0.00,WUHU21623XXSP,2013-02-21 09:09:00,
2013-02-21 01:14:00,19.0,17.2,30.03,SSW,202,0.0,0.0,93,0.00,,,0.00,WUHU21623XXSP,2013-02-21 09:14:00,
2013-02-21 01:19:00,19.2,17.4,30.03,SSW,202,0.0,0.0,93,0.00,,,0.00,WUHU21623XXSP,2013-02-21 09:19:00,
2013-02-21 01:24:00,19.4,17.6,30.03,SSW,202,0.0,0.0,93,0.00,,,0.00,WUHU21623XXSP,2013-02-21 09:24:00,
2013-02-21 01:29:00,19.4,17.6,30.03,SSW,202,0.0,0.0,93,0.00,,,0.00,WUHU21623XXSP,2013-02-21 09:29:00,
2013-02-21 01:34:00,19.6,17.8,30.03,SSW,202,0.0,0.0,93,0.00,,,0.00,WUHU21623XXSP,2013-02-21 09:34:00,
2013-02-21 01:39:00,19.9,18.1,30.03,SSW,202,0.0,0.0,93,0.00,,,0.00,WUHU21623XXSP,2013-02-21 09:39:00,
2013-02-21 01:44:00,20.3,18.5,30.03,SSW,202,0.0,0.0,93,0.00,,,0.00,WUHU21623XXSP,2013-02-21 09:44:00,
2013-02-21 01:49:00,20.5,19.0,30.03,SSW,202,0.0,0.0,94,0.00,,,0.00,WUHU21623XXSP,2013-02-21 09:49:00,
2013-02-21 01:54:00,20.8,19.2,30.04,SSW,202,0.0,0.0,94,0.00,,,0.00,WUHU21623XXSP,2013-02-21 09:54:00,
2013-02-21 01:59:00,21.0,19.4,30.03,SSW,202,0.0,0.0,94,0.00,,,0.00,WUHU21623XXSP,2013-02-21 09:59:00,
2013-02-21 02:04:00,21.4,19.8,30.04,SSW,202,0.0,0.0,94,0.00,,,0.00,WUHU21623XXSP,2013-02-21 10:04:00,
2013-02-21 02:09:00,21.6,20.0,30.03,SSW,202,0.0,0.0,94,0.00,,,0.00,WUHU21623XXSP,2013-02-21 10:09:00,
2013-02-21 02:14:00,21.7,20.1,30.04,SSW,202,0.0,0.0,94,0.00,,,0.00,WUHU21623XXSP,2013-02-21 10:14:00,
2013-02-21 02:19:00,21.9,20.3,30.04,SSW,202,0.0,0.0,94,0.00,,,0.00,WUHU21623XXSP,2013-02-21 10:19:00,
2013-02-21 02:24:00,22.1,20.5,30.03,SSW,202,0.0,0.0,94,0.00,,,0.00,WUHU21623XXSP,2013-02-21 10:24:00,
2013-02-21 02:29:00,22.3,20.7,30.03,SSW,202,0.0,0.0,94,0.00,,,0.00,WUHU21623XXSP,2013-02-21 10:29:00,
2013-02-21 02:34:00,22.6,21.0,30.04,SSW,202,0.0,0.0,94,0.00,,,0.00,WUHU21623XXSP,2013-02-21 10:34:00,
2013-02-21 02:39:00,22.8,21.2,30.03,SSW,202,0.0,0.0,94,0.00,,,0.00,WUHU21623XXSP,2013-02-21 10:39:00,
2013-02-21 02:44:00,22.8,21.2,30.03,SSW,202,0.0,0.0,94,0.00,,,0.00,WUHU21623XXSP,2013-02-21 10:44:00,
2013-02-21 02:49:00,23.5,22.2,30.04,SSW,202,0.0,0.0,95,0.00,,,0.00,WUHU21623XXSP,2013-02-21 10:49:00,
2013-02-21 02:54:00,23.7,22.4,30.03,SSW,202,0.0,0.0,95,0.00,,,0.00,WUHU21623XXSP,2013-02-21 10:54:00,
2013-02-21 02:59:00,23.7,22.4,30.03,SSW,202,0.0,0.0,95,0.00,,,0.00,WUHU21623XXSP,2013-02-21 10:59:00,
2013-02-21 03:04:00,23.7,22.1,30.04,SSW,202,0.0,0.0,94,0.00,,,0.00,WUHU21623XXSP,2013-02-21 11:04:00,
2013-02-21 03:09:00,23.9,22.3,30.03,SSW,202,0.0,0.0,94,0.00,,,0.00,WUHU21623XXSP,2013-02-21 11:09:00,
2013-02-21 03:14:00,24.1,22.5,30.03,SSW,202,0.0,0.0,94,0.00,,,0.00,WUHU21623XXSP,2013-02-21 11:14:00,
2013-02-21 03:19:00,24.1,22.5,30.03,SSW,202,0.0,0.0,94,0.00,,,0.00,WUHU21623XXSP,2013-02-21 11:19:00,
2013-02-21 03:24:00,24.1,22.5,30.03,SSW,202,0.0,0.0,94,0.00,,,0.00,WUHU21623XXSP,2013-02-21 11:24:00,
2013-02-21 03:29:00,24.1,22.5,30.04,SSW,202,0.0,0.0,94,0.00,,,0.00,WUHU21623XXSP,2013-02-21 11:29:00,
2013-02-21 03:34:00,24.1,22.8,30.03,SSW,202,0.0,0.0,95,0.00,,,0.00,WUHU21623XXSP,2013-02-21 11:34:00,
2013-02-21 03:39:00,24.4,23.1,30.03,SSW,202,0.0,0.0,95,0.00,,,0.00,WUHU21623XXSP,2013-02-21 11:39:00,
2013-02-21 03:44:00,24.6,23.3,30.03,SSW,202,0.0,0.0,95,0.00,,,0.00,WUHU21623XXSP,2013-02-21 11:44:00,
2013-02-21 03:49:00,24.6,23.3,30.03,SSW,202,0.0,0.0,95,0.00,,,0.00,WUHU21623XXSP,2013-02-21 11:49:00,
2013-02-21 03:54:00,25.0,23.7,30.03,SSW,202,0.0,0.0,95,0.00,,,0.00,WUHU21623XXSP,2013-02-21 11:54:00,
2013-02-21 03:59:00,25.0,23.4,30.04,SSW,202,0.0,0.0,94,0.00,,,0.00,WUHU21623XXSP,2013-02-21 11:59:00,
2013-02-21 04:04:00,25.0,23.4,30.03,SSW,202,0.0,0.0,94,0.00,,,0.00,WUHU21623XXSP,2013-02-21 12:04:00,
2013-02-21 04:09:00,24.6,23.0,30.03,SSW,202,0.0,0.0,94,0.00,,,0.00,WUHU21623XXSP,2013-02-21 12:09:00,
2013-02-21 04:14:00,24.4,22.8,30.03,SSW,202,0.0,0.0,94,0.00,,,0.00,WUHU21623XXSP,2013-02-21 12:14:00,
2013-02-21 04:19:00,23.9,22.3,30.03,SSW,202,0.0,0.0,94,0.00,,,0.00,WUHU21623XXSP,2013-02-21 12:19:00,
2013-02-21 04:24:00,23.5,21.9,30.03,SSW,202,0.0,0.0,94,0.00,,,0.00,WUHU21623XXSP,2013-02-21 12:24:00,
2013-02-21 04:29:00,23.4,21.8,30.03,SSW,202,0.0,0.0,94,0.00,,,0.00,WUHU21623XXSP,2013-02-21 12:29:00,
2013-02-21 04:34:00,23.2,21.6,30.03,SSW,202,0.0,0.0,94,0.00,,,0.00,WUHU21623XXSP,2013-02-21 12:34:00,
2013-02-21 04:39:00,23.0,21.4,30.03,SSW,202,6.3,6.3,94,0.00,,,0.00,WUHU21623XXSP,2013-02-21 12:39:00,
2013-02-21 04:44:00,23.0,21.7,30.03,SSW,202,0.0,6.3,95,0.00,,,0.00,WUHU21623XXSP,2013-02-21 12:44:00,
2013-02-21 04:49:00,22.5,20.9,30.04,SSW,202,6.7,6.7,94,0.00,,,0.00,WUHU21623XXSP,2013-02-21 12:49:00,
2013-02-21 04:54:00,22.6,21.3,30.04,SSW,202,6.3,6.7,95,0.00,,,0.00,WUHU21623XXSP,2013-02-21 12:54:00,
2013-02-21 04:59:00,22.8,21.5,30.04,SSW,202,6.3,6.3,95,0.00,,,0.00,WUHU21623XXSP,2013-02-21 12:59:00,
2013-02-21 05:04:00,22.6,21.3,30.03,SSW,202,7.4,7.6,95,0.00,,,0.00,WUHU21623XXSP,2013-02-21 13:04:00,
2013-02-21 05:09:00,22.5,21.2,30.03,SSW,202,7.6,7.6,95,0.00,,,0.00,WUHU21623XXSP,2013-02-21 13:09:00,
2013-02-21 05:14:00,22.8,21.5,30.03,SSW,202,7.2,8.3,95,0.00,,,0.00,WUHU21623XXSP,2013-02-21 13:14:00,
2013-02-21 05:19:00,23.0,21.9,30.03,SSW,202,8.9,8.9,96,0.00,,,0.00,WUHU21623XXSP,2013-02-21 13:19:00,
2013-02-21 05:24:00,23.0,21.9,30.03,SSW,202,7.6,8.9,96,0.00,,,0.00,WUHU21623XXSP,2013-02-21 13:24:00,
2013-02-21 05:29:00,22.8,21.7,30.03,SSW,202,8.3,8.3,96,0.00,,,0.00,WUHU21623XXSP,2013-02-21 13:29:00,
2013-02-21 05:34:00,22.8,21.7,30.03,SSW,202,8.3,8.3,96,0.00,,,0.00,WUHU21623XXSP,2013-02-21 13:34:00,
2013-02-21 05:39:00,23.0,21.9,30.03,SSW,202,8.3,8.3,96,0.00,,,0.00,WUHU21623XXSP,2013-02-21 13:39:00,
2013-02-21 05:44:00,23.0,21.9,30.03,SSW,202,8.1,8.3,96,0.00,,,0.00,WUHU21623XXSP,2013-02-21 13:44:00,
2013-02-21 05:49:00,22.8,21.7,30.03,SSW,202,7.2,8.3,96,0.00,,,0.00,WUHU21623XXSP,2013-02-21 13:49:00,
2013-02-21 05:54:00,22.8,21.7,30.02,SSW,202,8.3,8.5,96,0.00,,,0.00,WUHU21623XXSP,2013-02-21 13:54:00,
2013-02-21 05:59:00,22.6,21.3,30.02,SSW,202,7.8,8.5,95,0.00,,,0.00,WUHU21623XXSP,2013-02-21 13:59:00,
2013-02-21 06:04:00,22.8,21.7,30.01,SSW,202,8.9,8.9,96,0.00,,,0.00,WUHU21623XXSP,2013-02-21 14:04:00,
2013-02-21 06:09:00,23.2,22.1,30.02,SSW,202,8.3,8.9,96,0.00,,,0.00,WUHU21623XXSP,2013-02-21 14:09:00,
2013-02-21 06:14:00,23.5,22.4,30.02,SSW,202,8.5,8.9,96,0.00,,,0.00,WUHU21623XXSP,2013-02-21 14:14:00,
2013-02-21 06:19:00,24.1,23.0,30.03,SSW,202,8.7,8.7,96,0.00,,,0.00,WUHU21623XXSP,2013-02-21 14:19:00,
2013-02-21 06:24:00,24.4,23.3,30.03,SSW,202,6.5,8.7,96,0.00,,,0.00,WUHU21623XXSP,2013-02-21 14:24:00,
2013-02-21 06:29:00,24.4,23.3,30.02,SSW,202,8.7,8.7,96,0.00,,,0.00,WUHU21623XXSP,2013-02-21 14:29:00,
2013-02-21 06:34:00,24.4,23.3,30.02,SSW,202,8.5,8.7,96,0.00,,,0.00,WUHU21623XXSP,2013-02-21 14:34:00,
2013-02-21 06:39:00,24.6,23.5,30.02,SSW,202,8.7,8.7,96,0.00,,,0.00,WUHU21623XXSP,2013-02-21 14:39:00,
2013-02-21 06:44:00,24.6,23.5,30.02,SSW,202,7.4,8.7,96,0.00,,,0.00,WUHU21623XXSP,2013-02-21 14:44:00,
2013-02-21 06:49:00,25.0,23.9,30.02,SSW,202,6.0,7.4,96,0.00,,,0.00,WUHU21623XXSP,2013-02-21 14:49:00,
2013-02-21 06:54:00,25.2,24.1,30.02,SSW,202,7.6,7.6,96,0.00,,,0.00,WUHU21623XXSP,2013-02-21 14:54:00,
2013-02-21 06:59:00,25.3,24.2,30.02,SSW,202,7.4,7.6,96,0.00,,,0.00,WUHU21623XXSP,2013-02-21 14:59:00,
2013-02-21 07:04:00,25.3,24.2,30.03,SSW,202,6.3,7.6,96,0.00,,,0.00,WUHU21623XXSP,2013-02-21 15:04:00,
2013-02-21 07:09:00,25.5,24.4,30.03,SSW,202,7.8,8.3,96,0.00,,,0.00,WUHU21623XXSP,2013-02-21 15:09:00,
2013-02-21 07:14:00,25.7,24.6,30.03,SSW,202,8.3,8.3,96,0.00,,,0.00,WUHU21623XXSP,2013-02-21 15:14:00,
2013-02-21 07:19:00,25.9,24.8,30.03,SSW,202,7.8,8.3,96,0.00,,,0.00,WUHU21623XXSP,2013-02-21 15:19:00,
2013-02-21 07:24:00,26.2,24.9,30.03,SSW,202,7.2,8.5,95,0.00,,,0.00,WUHU21623XXSP,2013-02-21 15:24:00,
2013-02-21 07:29:00,26.4,25.1,30.03,SSW,202,8.1,8.5,95,0.00,,,0.00,WUHU21623XXSP,2013-02-21 15:29:00,
2013-02-21 07:34:00,26.4,25.1,30.03,SSW,202,8.5,8.9,95,0.00,,,0.00,WUHU21623XXSP,2013-02-21 15:34:00,
2013-02-21 07:39:00,26.6,25.3,30.04,SSW,202,6.7,8.9,95,0.00,,,0.00,WUHU21623XXSP,2013-02-21 15:39:00,
2013-02-21 07:44:00,27.0,25.7,30.04,SSW,202,8.9,8.9,95,0.00,,,0.00,WUHU21623XXSP,2013-02-21 15:44:00,
2013-02-21 07:49:00,27.1,25.5,30.03,SSW,202,5.1,8.9,94,0.00,,,0.00,WUHU21623XXSP,2013-02-21 15:49:00,
2013-02-21 07:54:00,27.3,25.7,30.03,SSW,202,8.1,8.1,94,0.00,,,0.00,WUHU21623XXSP,2013-02-21 15:54:00,
2013-02-21 07:59:00,27.3,25.7,30.04,SSW,202,7.2,8.3,94,0.00,,,0.00,WUHU21623XXSP,2013-02-21 15:59:00,
2013-02-21 08:04:00,27.5,25.6,30.04,SSW,202,7.4,8.3,93,0.00,,,0.00,WUHU21623XXSP,2013-02-21 16:04:00,
2013-02-21 08:09:00,27.5,25.6,30.04,SSW,202,6.7,7.8,93,0.00,,,0.00,WUHU21623XXSP,2013-02-21 16:09:00,
2013-02-21 08:14:00,27.5,25.6,30.04,SSW,202,7.8,7.8,93,0.00,,,0.00,WUHU21623XXSP,2013-02-21 16:14:00,
2013-02-21 08:19:00,27.7,25.8,30.04,SSW,202,6.9,7.8,93,0.00,,,0.00,WUHU21623XXSP,2013-02-21 16:19:00,
2013-02-21 08:24:00,28.0,26.4,30.04,SSW,202,4.3,7.2,94,0.00,,,0.00,WUHU21623XXSP,2013-02-21 16:24:00,
2013-02-21 08:29:00,28.2,26.6,30.03,SSW,202,9.6,9.6,94,0.00,,,0.00,WUHU21623XXSP,2013-02-21 16:29:00,
2013-02-21 08:34:00,28.8,27.2,30.03,SSW,202,7.2,9.6,94,0.00,,,0.00,WUHU21623XXSP,2013-02-21 16:34:00,
2013-02-21 08:39:00,28.9,27.3,30.03,SSW,202,7.2,9.4,94,0.00,,,0.00,WUHU21623XXSP,2013-02-21 16:39:00,
2013-02-21 08:44:00,28.9,27.3,30.03,SSW,202,9.6,9.6,94,0.00,,,0.00,WUHU21623XXSP,2013-02-21 16:44:00,
2013-02-21 08:49:00,29.3,27.7,30.03,SSW,202,8.9,11.0,94,0.00,,,0.00,WUHU21623XXSP,2013-02-21 16:49:00,
2013-02-21 08:54:00,30.0,28.4,30.04,SSW,202,11.9,11.9,94,0.00,,,0.00,WUHU21623XXSP,2013-02-21 16:54:00,
2013-02-21 08:59:00,30.6,29.0,30.04,SSW,202,8.3,13.4,94,0.00,,,0.00,WUHU21623XXSP,2013-02-21 16:59:00,
2013-02-21 09:04:00,31.1,29.5,30.04,SSW,202,10.5,13.4,94,0.00,,,0.00,WUHU21623XXSP,2013-02-21 17:04:00,
2013-02-21 09:09:00,31.3,29.7,30.04,SSW,202,10.5,10.5,94,0.00,,,0.00,WUHU21623XXSP,2013-02-21 17:09:00,
2013-02-21 09:14:00,31.8,29.9,30.04,SSW,202,6.5,10.5,93,0.00,,,0.00,WUHU21623XXSP,2013-02-21 17:14:00,
2013-02-21 09:19:00,32.5,30.6,30.04,South,180,3.4,10.5,93,0.00,,,0.00,WUHU21623XXSP,2013-02-21 17:19:00,
2013-02-21 09:24:00,33.1,30.9,30.03,SSW,202,12.1,12.1,92,0.00,,,0.00,WUHU21623XXSP,2013-02-21 17:24:00,
2013-02-21 09:25:00,33.4,31.2,30.04,SSW,202,12.1,12.1,92,0.00,,,0.00,WUHU21623XXSP,2013-02-21 17:25:00,
2013-02-21 09:29:00,33.1,30.4,30.04,South,180,8.5,12.1,90,0.00,,,0.00,WUHU21623XXSP,2013-02-21 17:29:00,
2013-02-21 09:34:00,32.9,30.2,30.03,SSW,202,6.0,12.1,90,0.00,,,0.00,WUHU21623XXSP,2013-02-21 17:34:00,
2013-02-21 09:39:00,33.1,30.4,30.04,South,180,12.5,12.5,90,0.00,,,0.00,WUHU21623XXSP,2013-02-21 17:39:00,
2013-02-21 09:44:00,32.7,30.0,30.04,South,180,12.3,12.5,90,0.00,,,0.00,WUHU21623XXSP,2013-02-21 17:44:00,
2013-02-21 09:49:00,32.7,29.7,30.03,South,180,11.6,12.3,89,0.00,,,0.00,WUHU21623XXSP,2013-02-21 17:49:00,
2013-02-21 09:54:00,32.7,30.0,30.03,SSW,202,11.9,11.9,90,0.00,,,0.00,WUHU21623XXSP,2013-02-21 17:54:00,
2013-02-21 09:59:00,33.1,30.1,30.03,South,180,8.3,11.9,89,0.00,,,0.00,WUHU21623XXSP,2013-02-21 17:59:00,
2013-02-21 10:04:00,33.1,30.1,30.03,South,180,6.5,11.9,89,0.00,,,0.00,WUHU21623XXSP,2013-02-21 18:04:00,
2013-02-21 10:09:00,32.9,30.2,30.04,SSW,202,1.3,8.5,90,0.00,,,0.00,WUHU21623XXSP,2013-02-21 18:09:00,
2013-02-21 10:14:00,32.9,30.2,30.04,South,180,6.0,8.5,90,0.00,,,0.00,WUHU21623XXSP,2013-02-21 18:14:00,
2013-02-21 10:19:00,33.1,30.4,30.03,South,180,8.3,8.3,90,0.00,,,0.00,WUHU21623XXSP,2013-02-21 18:19:00,
2013-02-21 10:24:00,32.9,30.2,30.03,South,180,6.5,8.3,90,0.00,,,0.00,WUHU21623XXSP,2013-02-21 18:24:00,
2013-02-21 10:29:00,33.1,30.4,30.03,SSW,202,9.2,9.2,90,0.00,,,0.00,WUHU21623XXSP,2013-02-21 18:29:00,
2013-02-21 10:34:00,32.9,30.5,30.03,SSW,202,5.4,9.2,91,0.00,,,0.00,WUHU21623XXSP,2013-02-21 18:34:00,
2013-02-21 10:39:00,32.9,30.5,30.03,SW,225,8.3,8.3,91,0.00,,,0.00,WUHU21623XXSP,2013-02-21 18:39:00,
2013-02-21 10:44:00,33.1,30.7,30.03,SSW,202,10.3,10.3,91,0.00,,,0.00,WUHU21623XXSP,2013-02-21 18:44:00,
2013-02-21 10:49:00,33.1,30.7,30.03,SSW,202,8.1,10.3,91,0.00,,,0.00,WUHU21623XXSP,2013-02-21 18:49:00,
2013-02-21 10:54:00,32.9,30.5,30.03,South,180,6.9,8.1,91,0.00,,,0.00,WUHU21623XXSP,2013-02-21 18:54:00,
2013-02-21 10:59:00,32.9,30.7,30.03,SSW,202,6.5,7.6,92,0.00,,,0.00,WUHU21623XXSP,2013-02-21 18:59:00,
2013-02-21 11:04:00,32.7,30.5,30.03,SW,225,12.5,12.5,92,0.00,,,0.00,WUHU21623XXSP,2013-02-21 19:04:00,
2013-02-21 11:09:00,32.7,30.5,30.03,SSW,202,14.1,14.1,92,0.00,,,0.00,WUHU21623XXSP,2013-02-21 19:09:00,
2013-02-21 11:14:00,32.7,30.5,30.03,SW,225,9.8,14.1,92,0.00,,,0.00,WUHU21623XXSP,2013-02-21 19:14:00,
2013-02-21 11:19:00,32.9,30.7,30.03,SSW,202,6.0,14.1,92,0.00,,,0.00,WUHU21623XXSP,2013-02-21 19:19:00,
2013-02-21 11:24:00,33.1,30.9,30.03,SW,225,8.3,8.3,92,0.00,,,0.00,WUHU21623XXSP,2013-02-21 19:24:00,
2013-02-21 11:29:00,33.3,31.1,30.03,SSW,202,8.5,9.2,92,0.00,,,0.00,WUHU21623XXSP,2013-02-21 19:29:00,
2013-02-21 11:34:00,33.4,31.2,30.02,SSW,202,6.3,9.8,92,0.00,,,0.00,WUHU21623XXSP,2013-02-21 19:34:00,
2013-02-21 11:39:00,33.6,31.4,30.02,South,180,5.6,9.8,92,0.00,,,0.00,WUHU21623XXSP,2013-02-21 19:39:00,
2013-02-21 11:44:00,33.6,31.4,30.02,SSW,202,11.4,11.4,92,0.00,,,0.00,WUHU21623XXSP,2013-02-21 19:44:00,
2013-02-21 11:49:00,33.6,31.4,30.01,SSW,202,9.8,11.4,92,0.00,,,0.00,WUHU21623XXSP,2013-02-21 19:49:00,
2013-02-21 11:54:00,33.6,31.4,30.01,SSW,202,12.8,12.8,92,0.00,,,0.00,WUHU21623XXSP,2013-02-21 19:54:00,
2013-02-21 11:59:00,33.6,31.4,30.01,SSW,202,13.2,13.2,92,0.00,,,0.00,WUHU21623XXSP,2013-02-21 19:59:00,
2013-02-21 12:04:00,33.8,31.6,30.01,SSW,202,13.2,16.8,92,0.00,,,0.00,WUHU21623XXSP,2013-02-21 20:04:00,
2013-02-21 12:09:00,34.0,31.8,30.01,SSW,202,4.5,16.8,92,0.00,,,0.00,WUHU21623XXSP,2013-02-21 20:09:00,
2013-02-21 12:14:00,34.0,31.8,30.01,SSW,202,4.5,12.5,92,0.00,,,0.00,WUHU21623XXSP,2013-02-21 20:14:00,
2013-02-21 12:19:00,34.0,31.8,30.01,SSW,202,4.5,4.5,92,0.00,,,0.00,WUHU21623XXSP,2013-02-21 20:19:00,
2013-02-21 12:24:00,34.0,31.5,30.01,SSW,202,12.5,16.3,91,0.00,,,0.00,WUHU21623XXSP,2013-02-21 20:24:00,
2013-02-21 12:29:00,33.6,31.2,30.01,SSW,202,10.3,16.3,91,0.00,,,0.00,WUHU21623XXSP,2013-02-21 20:29:00,
2013-02-21 12:34:00,33.6,31.2,30.01,SSW,202,9.8,11.6,91,0.00,,,0.00,WUHU21623XXSP,2013-02-21 20:34:00,
2013-02-21 12:39:00,33.6,31.2,30.01,SSW,202,7.6,11.4,91,0.00,,,0.00,WUHU21623XXSP,2013-02-21 20:39:00,
2013-02-21 12:44:00,33.6,31.2,30.01,SSW,202,8.3,11.4,91,0.00,,,0.00,WUHU21623XXSP,2013-02-21 20:44:00,
2013-02-21 12:49:00,33.6,31.2,30.01,SSW,202,6.7,8.3,91,0.00,,,0.00,WUHU21623XXSP,2013-02-21 20:49:00,
2013-02-21 12:54:00,33.6,31.4,30.01,SSW,202,8.5,10.5,92,0.00,,,0.00,WUHU21623XXSP,2013-02-21 20:54:00,
2013-02-21 12:59:00,34.0,31.8,30.00,SSW,202,10.7,10.7,92,0.00,,,0.00,WUHU21623XXSP,2013-02-21 20:59:00,
2013-02-21 13:04:00,34.0,31.8,30.00,SSW,202,10.7,10.7,92,0.00,,,0.00,WUHU21623XXSP,2013-02-21 21:04:00,
2013-02-21 13:09:00,34.3,32.1,30.00,SSW,202,9.8,10.7,92,0.00,,,0.00,WUHU21623XXSP,2013-02-21 21:09:00,
2013-02-21 13:14:00,34.3,32.1,30.00,SSW,202,11.2,11.2,92,0.00,,,0.00,WUHU21623XXSP,2013-02-21 21:14:00,
2013-02-21 13:19:00,34.3,31.8,30.00,SSW,202,9.8,11.2,91,0.00,,,0.00,WUHU21623XXSP,2013-02-21 21:19:00,
2013-02-21 13:24:00,34.3,31.8,30.00,SSW,202,8.9,9.8,91,0.00,,,0.00,WUHU21623XXSP,2013-02-21 21:24:00,
2013-02-21 13:29:00,34.3,31.8,30.00,SSW,202,8.7,8.9,91,0.00,,,0.00,WUHU21623XXSP,2013-02-21 21:29:00,
2013-02-21 13:34:00,34.3,31.8,30.00,SSW,202,8.1,8.7,91,0.00,,,0.00,WUHU21623XXSP,2013-02-21 21:34:00,
2013-02-21 13:39:00,34.9,32.4,30.00,SSW,202,8.7,8.7,91,0.00,,,0.00,WUHU21623XXSP,2013-02-21 21:39:00,
2013-02-21 13:44:00,35.2,32.7,30.00,SSW,202,10.7,10.7,91,0.00,,,0.00,WUHU21623XXSP,2013-02-21 21:44:00,
2013-02-21 13:49:00,35.4,32.9,30.00,SSW,202,10.1,10.7,91,0.00,,,0.00,WUHU21623XXSP,2013-02-21 21:49:00,
2013-02-21 13:54:00,35.8,33.1,30.00,SSW,202,8.7,10.7,90,0.00,,,0.00,WUHU21623XXSP,2013-02-21 21:54:00,
2013-02-21 13:59:00,36.1,33.4,30.00,SW,225,15.0,15.0,90,0.00,,,0.00,WUHU21623XXSP,2013-02-21 21:59:00,
2013-02-21 14:04:00,36.3,33.5,30.01,SW,225,15.0,15.0,90,0.00,,,0.00,WUHU21623XXSP,2013-02-21 22:04:00,
2013-02-21 14:09:00,36.7,33.7,30.01,SW,225,7.8,15.0,89,0.00,,,0.00,WUHU21623XXSP,2013-02-21 22:09:00,
2013-02-21 14:14:00,37.0,34.0,30.00,SW,225,15.9,15.9,89,0.00,,,0.00,WUHU21623XXSP,2013-02-21 22:14:00,
2013-02-21 14:19:00,37.0,33.7,30.00,SW,225,8.1,15.9,88,0.00,,,0.00,WUHU21623XXSP,2013-02-21 22:19:00,
2013-02-21 14:24:00,37.0,33.4,30.00,SW,225,11.4,13.9,87,0.00,,,0.00,WUHU21623XXSP,2013-02-21 22:24:00,
2013-02-21 14:29:00,36.9,33.3,30.01,WSW,247,8.7,11.4,87,0.00,,,0.00,WUHU21623XXSP,2013-02-21 22:29:00,
2013-02-21 14:34:00,36.7,33.1,30.00,WSW,247,11.4,11.4,87,0.00,,,0.00,WUHU21623XXSP,2013-02-21 22:34:00,
2013-02-21 14:39:00,36.9,33.3,30.00,SW,225,9.8,11.4,87,0.00,,,0.00,WUHU21623XXSP,2013-02-21 22:39:00,
2013-02-21 14:44:00,37.2,33.6,30.00,SW,225,2.7,9.8,87,0.00,,,0.00,WUHU21623XXSP,2013-02-21 22:44:00,
2013-02-21 14:49:00,37.6,34.0,29.99,SW,225,4.7,9.8,87,0.00,,,0.00,WUHU21623XXSP,2013-02-21 22:49:00,
2013-02-21 14:54:00,39.0,35.4,29.99,SW,225,9.6,11.9,87,0.00,,,0.00,WUHU21623XXSP,2013-02-21 22:54:00,
2013-02-21 14:59:00,39.4,35.2,30.00,WSW,247,8.1,11.9,85,0.00,,,0.00,WUHU21623XXSP,2013-02-21 22:59:00,
2013-02-21 15:04:00,39.7,35.2,30.00,WSW,247,2.9,8.1,84,0.00,,,0.00,WUHU21623XXSP,2013-02-21 23:04:00,
2013-02-21 15:09:00,39.9,35.4,30.00,WSW,247,7.4,7.6,84,0.00,,,0.00,WUHU21623XXSP,2013-02-21 23:09:00,
2013-02-21 15:14:00,39.7,34.9,30.00,WSW,247,7.2,7.4,83,0.02,,,0.02,WUHU21623XXSP,2013-02-21 23:14:00,
2013-02-21 15:19:00,39.4,34.6,30.00,WSW,247,9.2,9.2,83,0.02,,,0.02,WUHU21623XXSP,2013-02-21 23:19:00,
2013-02-21 15:24:00,38.8,33.7,30.00,WSW,247,7.8,14.1,82,0.02,,,0.02,WUHU21623XXSP,2013-02-21 23:24:00,
2013-02-21 15:29:00,38.5,33.4,29.99,WSW,247,7.8,14.1,82,0.02,,,0.02,WUHU21623XXSP,2013-02-21 23:29:00,
2013-02-21 15:34:00,38.1,33.0,29.99,WSW,247,6.7,7.8,82,0.02,,,0.02,WUHU21623XXSP,2013-02-21 23:34:00,
2013-02-21 15:39:00,37.8,33.0,29.99,WSW,247,5.6,8.3,83,0.02,,,0.02,WUHU21623XXSP,2013-02-21 23:39:00,
2013-02-21 15:44:00,37.8,33.0,29.99,WSW,247,13.0,13.0,83,0.02,,,0.02,WUHU21623XXSP,2013-02-21 23:44:00,
2013-02-21 15:49:00,37.6,32.8,29.99,WSW,247,10.3,13.0,83,0.02,,,0.02,WUHU21623XXSP,2013-02-21 23:49:00,
2013-02-21 15:54:00,37.2,32.4,29.99,WSW,247,0.0,10.3,83,0.02,,,0.02,WUHU21623XXSP,2013-02-21 23:54:00,
2013-02-21 15:59:00,37.0,32.3,29.99,WSW,247,0.0,5.4,83,0.02,,,0.02,WUHU21623XXSP,2013-02-21 23:59:00,
2013-02-21 16:04:00,37.0,32.5,30.00,WSW,247,0.7,0.7,84,0.02,,,0.02,WUHU21623XXSP,2013-02-22 00:04:00,
2013-02-21 16:09:00,37.2,32.7,30.00,WSW,247,0.0,0.7,84,0.00,,,0.02,WUHU21623XXSP,2013-02-22 00:09:00,
2013-02-21 16:14:00,37.0,32.5,30.00,WSW,247,0.0,0.0,84,0.00,,,0.02,WUHU21623XXSP,2013-02-22 00:14:00,
2013-02-21 16:19:00,37.0,32.5,30.00,WSW,247,0.0,0.0,84,0.00,,,0.02,WUHU21623XXSP,2013-02-22 00:19:00,
2013-02-21 16:24:00,36.7,32.0,30.00,WSW,247,0.0,0.0,83,0.00,,,0.02,WUHU21623XXSP,2013-02-22 00:24:00,
2013-02-21 16:29:00,36.3,31.6,29.99,WSW,247,0.0,0.0,83,0.00,,,0.02,WUHU21623XXSP,2013-02-22 00:29:00,
2013-02-21 16:34:00,36.0,31.6,29.99,WSW,247,0.0,0.0,84,0.00,,,0.02,WUHU21623XXSP,2013-02-22 00:34:00,
2013-02-21 16:39:00,35.8,31.4,29.99,WSW,247,0.0,0.0,84,0.00,,,0.02,WUHU21623XXSP,2013-02-22 00:39:00,
2013-02-21 16:44:00,36.0,31.8,30.00,WSW,247,0.0,0.0,85,0.00,,,0.02,WUHU21623XXSP,2013-02-22 00:44:00,
2013-02-21 16:47:00,35.8,31.7,30.00,SW,225,3.6,3.6,85,0.00,,,0.02,WUHU21623XXSP,2013-02-22 00:47:00,
2013-02-21 16:51:00,35.8,31.7,30.00,SW,225,0.0,3.6,85,0.00,,,0.02,WUHU21623XXSP,2013-02-22 00:51:00,
2013-02-21 16:57:00,35.2,31.1,30.00,SW,225,0.0,0.0,85,0.00,,,0.02,WUHU21623XXSP,2013-02-22 00:57:00,
2013-02-21 17:04:00,34.3,29.9,29.99,SSW,202,0.0,0.0,84,0.00,,,0.02,WUHU21623XXSP,2013-02-22 01:04:00,
2013-02-21 17:18:00,34.0,29.9,30.00,SSW,202,0.0,0.0,85,0.00,,,0.02,WUHU21623XXSP,2013-02-22 01:18:00,
2013-02-21 17:23:00,32.7,28.6,30.00,SW,225,6.5,6.5,85,0.00,,,0.02,WUHU21623XXSP,2013-02-22 01:23:00,
2013-02-21 17:28:00,32.4,28.6,30.00,SW,225,0.0,6.5,86,0.00,,,0.02,WUHU21623XXSP,2013-02-22 01:28:00,
2013-02-21 17:33:00,32.2,28.4,30.00,SW,225,0.0,0.0,86,0.00,,,0.02,WUHU21623XXSP,2013-02-22 01:33:00,
2013-02-21 17:38:00,31.8,28.0,30.00,SW,225,0.0,0.0,86,0.00,,,0.02,WUHU21623XXSP,2013-02-22 01:38:00,
2013-02-21 17:43:00,31.3,27.5,30.00,SW,225,0.0,0.0,86,0.00,,,0.02,WUHU21623XXSP,2013-02-22 01:43:00,
2013-02-21 17:48:00,31.1,27.6,30.00,SW,225,0.0,0.0,87,0.00,,,0.02,WUHU21623XXSP,2013-02-22 01:48:00,
2013-02-21 17:53:00,30.7,27.2,30.00,SW,225,0.0,0.0,87,0.00,,,0.02,WUHU21623XXSP,2013-02-22 01:53:00,
2013-02-21 17:58:00,30.6,27.1,30.00,SW,225,0.0,0.0,87,0.00,,,0.02,WUHU21623XXSP,2013-02-22 01:58:00,
2013-02-21 18:00:00,30.6,27.1,30.00,SW,225,0.0,0.0,87,0.00,,,0.02,WUHU21623XXSP,2013-02-22 02:00:00,
2013-02-21 18:04:00,30.4,27.2,30.00,SW,225,0.0,0.0,88,0.00,,,0.02,WUHU21623XXSP,2013-02-22 02:04:00,
2013-02-21 18:10:00,30.4,27.2,30.00,SW,225,0.0,0.0,88,0.00,,,0.02,WUHU21623XXSP,2013-02-22 02:10:00,
2013-02-21 18:17:00,30.7,27.7,30.00,SSW,202,0.0,0.0,89,0.00,,,0.02,WUHU21623XXSP,2013-02-22 02:17:00,
2013-02-21 18:31:00,30.9,27.9,30.00,SW,225,0.0,0.0,89,0.00,,,0.02,WUHU21623XXSP,2013-02-22 02:31:00,
2013-02-21 18:36:00,31.6,28.6,30.01,SSW,202,0.0,6.7,89,0.00,,,0.02,WUHU21623XXSP,2013-02-22 02:36:00,
2013-02-21 18:41:00,31.6,28.9,30.01,SSW,202,6.3,6.3,90,0.00,,,0.02,WUHU21623XXSP,2013-02-22 02:41:00,
2013-02-21 18:46:00,31.6,28.6,30.00,SSW,202,0.0,6.3,89,0.00,,,0.02,WUHU21623XXSP,2013-02-22 02:46:00,
2013-02-21 18:51:00,31.6,28.6,30.01,SSW,202,0.0,6.3,89,0.00,,,0.02,WUHU21623XXSP,2013-02-22 02:51:00,
2013-02-21 18:56:00,31.6,28.6,30.01,SSW,202,0.0,1.6,89,0.00,,,0.02,WUHU21623XXSP,2013-02-22 02:56:00,
2013-02-21 19:01:00,31.6,28.6,30.01,SSW,202,7.2,7.2,89,0.00,,,0.02,WUHU21623XXSP,2013-02-22 03:01:00,
2013-02-21 19:06:00,31.6,28.6,30.00,SSW,202,7.2,7.2,89,0.00,,,0.02,WUHU21623XXSP,2013-02-22 03:06:00,
2013-02-21 19:11:00,31.6,28.9,30.01,SSW,202,5.6,8.5,90,0.00,,,0.02,WUHU21623XXSP,2013-02-22 03:11:00,
2013-02-21 19:16:00,31.6,28.9,30.00,SSW,202,10.5,10.5,90,0.00,,,0.02,WUHU21623XXSP,2013-02-22 03:16:00,
2013-02-21 19:21:00,31.8,29.1,30.01,SSW,202,6.7,10.5,90,0.00,,,0.02,WUHU21623XXSP,2013-02-22 03:21:00,
2013-02-21 19:26:00,31.8,29.1,30.01,SSW,202,6.7,10.5,90,0.00,,,0.02,WUHU21623XXSP,2013-02-22 03:26:00,
2013-02-21 19:31:00,32.2,29.5,30.00,SSW,202,6.7,9.6,90,0.00,,,0.02,WUHU21623XXSP,2013-02-22 03:31:00,
2013-02-21 19:36:00,32.2,29.5,30.00,SSW,202,7.4,12.1,90,0.00,,,0.02,WUHU21623XXSP,2013-02-22 03:36:00,
2013-02-21 19:41:00,32.2,29.5,30.00,SSW,202,8.9,12.1,90,0.00,,,0.02,WUHU21623XXSP,2013-02-22 03:41:00,
2013-02-21 19:46:00,32.2,29.5,30.00,SSW,202,9.6,11.9,90,0.00,,,0.02,WUHU21623XXSP,2013-02-22 03:46:00,
2013-02-21 19:51:00,32.2,29.5,30.00,SSW,202,9.6,9.6,90,0.00,,,0.02,WUHU21623XXSP,2013-02-22 03:51:00,
2013-02-21 19:56:00,32.2,29.5,30.00,SSW,202,8.3,9.8,90,0.00,,,0.02,WUHU21623XXSP,2013-02-22 03:56:00,
2013-02-21 20:01:00,32.2,29.5,29.99,SSW,202,11.6,11.6,90,0.00,,,0.02,WUHU21623XXSP,2013-02-22 04:01:00,
2013-02-21 20:06:00,31.8,29.1,29.99,SSW,202,8.7,11.6,90,0.00,,,0.02,WUHU21623XXSP,2013-02-22 04:06:00,
2013-02-21 20:11:00,31.8,29.1,29.99,SSW,202,9.2,11.6,90,0.00,,,0.02,WUHU21623XXSP,2013-02-22 04:11:00,
2013-02-21 20:16:00,31.8,29.4,29.99,SSW,202,8.1,10.1,91,0.00,,,0.02,WUHU21623XXSP,2013-02-22 04:16:00,
2013-02-21 20:21:00,31.8,29.4,30.00,SSW,202,10.7,10.7,91,0.00,,,0.02,WUHU21623XXSP,2013-02-22 04:21:00,
2013-02-21 20:26:00,31.8,29.4,30.00,SSW,202,7.6,10.7,91,0.00,,,0.02,WUHU21623XXSP,2013-02-22 04:26:00,
2013-02-21 20:31:00,31.8,29.4,29.99,South,180,11.6,11.6,91,0.00,,,0.02,WUHU21623XXSP,2013-02-22 04:31:00,
2013-02-21 20:36:00,31.8,29.4,30.00,South,180,11.6,11.6,91,0.00,,,0.02,WUHU21623XXSP,2013-02-22 04:36:00,
2013-02-21 20:41:00,31.8,29.4,30.00,South,180,5.6,11.6,91,0.00,,,0.02,WUHU21623XXSP,2013-02-22 04:41:00,
2013-02-21 20:46:00,31.8,29.4,30.00,South,180,9.2,10.7,91,0.00,,,0.02,WUHU21623XXSP,2013-02-22 04:46:00,
2013-02-21 20:51:00,31.8,29.4,30.00,SSW,202,9.2,9.2,91,0.00,,,0.02,WUHU21623XXSP,2013-02-22 04:51:00,
2013-02-21 20:56:00,31.8,29.4,29.99,South,180,11.4,11.4,91,0.00,,,0.02,WUHU21623XXSP,2013-02-22 04:56:00,
2013-02-21 21:00:00,31.6,29.4,30.00,South,180,7.6,11.4,92,0.00,,,0.02,WUHU21623XXSP,2013-02-22 05:00:00,
2013-02-21 21:05:00,31.6,29.4,30.00,South,180,6.9,11.4,92,0.00,,,0.02,WUHU21623XXSP,2013-02-22 05:05:00,
2013-02-21 21:10:00,31.6,29.4,30.00,South,180,6.9,10.3,92,0.00,,,0.02,WUHU21623XXSP,2013-02-22 05:10:00,
2013-02-21 21:15:00,31.8,29.6,30.00,SSW,202,8.7,8.7,92,0.00,,,0.02,WUHU21623XXSP,2013-02-22 05:15:00,
2013-02-21 21:20:00,31.8,29.6,30.00,South,180,8.3,8.7,92,0.00,,,0.02,WUHU21623XXSP,2013-02-22 05:20:00,
2013-02-21 21:25:00,31.8,29.6,30.00,SW,225,17.7,17.7,92,0.00,,,0.02,WUHU21623XXSP,2013-02-22 05:25:00,
2013-02-21 21:30:00,31.8,29.6,30.00,South,180,3.6,17.7,92,0.00,,,0.02,WUHU21623XXSP,2013-02-22 05:30:00,
2013-02-21 21:35:00,31.8,29.6,30.00,South,180,11.2,11.2,92,0.00,,,0.02,WUHU21623XXSP,2013-02-22 05:35:00,
2013-02-21 21:40:00,31.8,29.6,30.00,South,180,8.5,13.9,92,0.00,,,0.02,WUHU21623XXSP,2013-02-22 05:40:00,
2013-02-21 21:45:00,31.8,29.6,30.00,South,180,10.5,13.9,92,0.00,,,0.02,WUHU21623XXSP,2013-02-22 05:45:00,
2013-02-21 21:50:00,31.8,29.6,30.00,SW,225,11.4,11.4,92,0.00,,,0.02,WUHU21623XXSP,2013-02-22 05:50:00,
2013-02-21 21:55:00,31.8,29.6,30.00,SSW,202,15.9,15.9,92,0.00,,,0.02,WUHU21623XXSP,2013-02-22 05:55:00,
2013-02-21 22:00:00,31.8,29.6,30.00,SSW,202,11.6,15.9,92,0.00,,,0.02,WUHU21623XXSP,2013-02-22 06:00:00,
2013-02-21 22:05:00,31.8,29.6,30.00,SSW,202,11.4,11.6,92,0.00,,,0.02,WUHU21623XXSP,2013-02-22 06:05:00,
2013-02-21 22:10:00,31.8,29.6,30.01,SSW,202,13.0,13.0,92,0.00,,,0.02,WUHU21623XXSP,2013-02-22 06:10:00,
2013-02-21 22:15:00,31.8,29.6,30.01,SSW,202,12.1,13.0,92,0.00,,,0.02,WUHU21623XXSP,2013-02-22 06:15:00,
2013-02-21 22:20:00,31.8,29.6,30.01,South,180,10.7,12.1,92,0.00,,,0.02,WUHU21623XXSP,2013-02-22 06:20:00,
2013-02-21 22:25:00,31.8,29.6,30.01,SW,225,11.0,12.1,92,0.00,,,0.02,WUHU21623XXSP,2013-02-22 06:25:00,
2013-02-21 22:30:00,31.6,29.4,30.01,South,180,11.9,11.9,92,0.00,,,0.02,WUHU21623XXSP,2013-02-22 06:30:00,
2013-02-21 22:35:00,31.3,29.1,30.01,South,180,8.7,11.9,92,0.00,,,0.02,WUHU21623XXSP,2013-02-22 06:35:00,
2013-02-21 22:40:00,31.3,29.4,30.00,South,180,11.4,11.4,93,0.00,,,0.02,WUHU21623XXSP,2013-02-22 06:40:00,
2013-02-21 22:45:00,30.9,29.0,30.00,SSW,202,9.4,11.4,93,0.00,,,0.02,WUHU21623XXSP,2013-02-22 06:45:00,
2013-02-21 22:50:00,30.9,29.0,30.01,South,180,6.0,12.8,93,0.00,,,0.02,WUHU21623XXSP,2013-02-22 06:50:00,
2013-02-21 22:55:00,30.6,28.7,30.00,South,180,9.8,12.8,93,0.00,,,0.02,WUHU21623XXSP,2013-02-22 06:55:00,
2013-02-21 23:00:00,30.4,28.5,30.00,South,180,11.6,11.6,93,0.00,,,0.02,WUHU21623XXSP,2013-02-22 07:00:00,
2013-02-21 23:05:00,30.0,28.1,30.00,SSW,202,15.2,15.2,93,0.00,,,0.02,WUHU21623XXSP,2013-02-22 07:05:00,
2013-02-21 23:10:00,30.0,28.1,30.01,SSW,202,9.4,15.2,93,0.00,,,0.02,WUHU21623XXSP,2013-02-22 07:10:00,
2013-02-21 23:15:00,30.0,28.4,30.01,South,180,8.9,13.2,94,0.00,,,0.02,WUHU21623XXSP,2013-02-22 07:15:00,
2013-02-21 23:20:00,29.8,28.2,30.00,South,180,13.9,13.9,94,0.00,,,0.02,WUHU21623XXSP,2013-02-22 07:20:00,
2013-02-21 23:25:00,29.8,28.2,30.00,South,180,8.1,13.9,94,0.00,,,0.02,WUHU21623XXSP,2013-02-22 07:25:00,
2013-02-21 23:30:00,29.7,28.1,30.00,SSW,202,8.9,13.9,94,0.00,,,0.02,WUHU21623XXSP,2013-02-22 07:30:00,
2013-02-21 23:35:00,29.5,27.9,30.00,SSW,202,8.9,8.9,94,0.00,,,0.02,WUHU21623XXSP,2013-02-22 07:35:00,
2013-02-21 23:40:00,29.3,27.7,29.99,South,180,8.1,8.9,94,0.00,,,0.02,WUHU21623XXSP,2013-02-22 07:40:00,
2013-02-21 23:45:00,29.1,27.8,29.99,South,180,7.4,14.3,95,0.00,,,0.02,WUHU21623XXSP,2013-02-22 07:45:00,
2013-02-21 23:50:00,28.9,27.3,30.00,South,180,13.0,14.3,94,0.00,,,0.02,WUHU21623XXSP,2013-02-22 07:50:00,
2013-02-21 23:55:00,28.6,27.3,29.99,South,180,7.2,13.0,95,0.00,,,0.02,WUHU21623XXSP,2013-02-22 07:55:00,